EN

Hourly Weather Brudnowo

Today, 18 May, Tuesday

Time Temperature Precipitation Wind Pressure Humidity
00:00 +11°C° 1.6 mm 3 mps 745 mmHg 95%
01:00 +11°C° 0 mm 3 mps 745 mmHg 96%
02:00 +10°C° 1.9 mm 3 mps 745 mmHg 96%
03:00 +10°C° 1.9 mm 2 mps 745 mmHg 96%
04:00 +10°C° 1.9 mm 2 mps 745 mmHg 96%
05:00 +10°C° 1.7 mm 2 mps 746 mmHg 96%
06:00 +12°C° 1.7 mm 2 mps 746 mmHg 96%
07:00 +12°C° 1.7 mm 2 mps 746 mmHg 96%
08:00 +12°C° 1.1 mm 2 mps 746 mmHg 95%
09:00 +12°C° 1.1 mm 2 mps 747 mmHg 94%
10:00 +12°C° 1.1 mm 2 mps 747 mmHg 93%
11:00 +12°C° 0.5 mm 3 mps 747 mmHg 91%
12:00 +12°C° 0.5 mm 3 mps 747 mmHg 89%
13:00 +12°C° 0.5 mm 3 mps 747 mmHg 88%
14:00 +13°C° 0.2 mm 3 mps 747 mmHg 85%
15:00 +13°C° 0.2 mm 3 mps 748 mmHg 82%
16:00 +14°C° 0.2 mm 3 mps 748 mmHg 78%
17:00 +13°C° 0.2 mm 3 mps 748 mmHg 82%
18:00 +13°C° 0.2 mm 2 mps 748 mmHg 85%
19:00 +13°C° 0.2 mm 2 mps 748 mmHg 89%
20:00 +12°C° 0.1 mm 2 mps 748 mmHg 90%
21:00 +12°C° 0.1 mm 2 mps 748 mmHg 92%
22:00 +10°C° 0.1 mm 2 mps 749 mmHg 94%
23:00 +10°C° 0 mm 2 mps 749 mmHg 95%

Tomorrow, 19 May, Wednesday

Time Temperature Precipitation Wind Pressure Humidity
00:00 +9°C° 0 mm 2 mps 749 mmHg 95%
01:00 +9°C° 0 mm 2 mps 749 mmHg 95%
02:00 +9°C° 0 mm 2 mps 749 mmHg 95%
03:00 +8°C° 0 mm 3 mps 749 mmHg 95%
04:00 +8°C° 0 mm 3 mps 749 mmHg 94%
05:00 +9°C° 0 mm 3 mps 750 mmHg 90%
06:00 +8°C° 0 mm 4 mps 750 mmHg 87%
07:00 +10°C° 0 mm 4 mps 750 mmHg 83%
08:00 +12°C° 0 mm 5 mps 750 mmHg 76%
09:00 +13°C° 0 mm 5 mps 750 mmHg 69%
10:00 +15°C° 0 mm 5 mps 750 mmHg 63%
11:00 +15°C° 0.1 mm 5 mps 750 mmHg 62%
12:00 +15°C° 0.1 mm 5 mps 750 mmHg 62%
13:00 +15°C° 0.1 mm 5 mps 750 mmHg 62%
14:00 +15°C° 0.1 mm 5 mps 750 mmHg 63%
15:00 +15°C° 0.1 mm 5 mps 750 mmHg 64%
16:00 +15°C° 0.1 mm 4 mps 750 mmHg 65%
17:00 +14°C° 0.3 mm 4 mps 750 mmHg 71%
18:00 +12°C° 0.3 mm 3 mps 751 mmHg 76%
19:00 +12°C° 0.3 mm 2 mps 751 mmHg 82%
20:00 +10°C° 0 mm 2 mps 751 mmHg 84%
21:00 +9°C° 0 mm 2 mps 751 mmHg 86%
22:00 +8°C° 0 mm 2 mps 752 mmHg 88%
23:00 +7°C° 0 mm 2 mps 752 mmHg 88%

Day after tomorrow, 20 May, Thursday

Time Temperature Precipitation Wind Pressure Humidity
00:00 +7°C° 0 mm 2 mps 752 mmHg 89%
01:00 +6°C° 0 mm 2 mps 752 mmHg 89%
02:00 +6°C° 0 mm 2 mps 752 mmHg 89%
03:00 +5°C° 0 mm 2 mps 753 mmHg 89%
04:00 +5°C° 0 mm 2 mps 753 mmHg 89%
05:00 +5°C° 0 mm 3 mps 753 mmHg 85%
06:00 +8°C° 0 mm 3 mps 753 mmHg 81%
07:00 +10°C° 0 mm 3 mps 754 mmHg 76%
08:00 +11°C° 0 mm 3 mps 754 mmHg 71%
09:00 +13°C° 0 mm 3 mps 754 mmHg 65%
10:00 +14°C° 0 mm 3 mps 754 mmHg 59%
11:00 +16°C° 0 mm 3 mps 754 mmHg 56%
12:00 +17°C° 0 mm 3 mps 753 mmHg 53%
13:00 +17°C° 0 mm 3 mps 753 mmHg 50%
14:00 +17°C° 0.1 mm 4 mps 754 mmHg 57%
15:00 +15°C° 0.1 mm 5 mps 754 mmHg 64%
16:00 +14°C° 0.1 mm 5 mps 754 mmHg 71%
17:00 +13°C° 0.2 mm 4 mps 754 mmHg 75%
18:00 +12°C° 0.2 mm 4 mps 754 mmHg 78%
19:00 +11°C° 0.2 mm 3 mps 754 mmHg 82%
20:00 +10°C° 0 mm 3 mps 755 mmHg 84%
21:00 +9°C° 0 mm 3 mps 755 mmHg 86%
22:00 +8°C° 0 mm 2 mps 755 mmHg 88%
23:00 +7°C° 0 mm 2 mps 755 mmHg 89%

21 May, Friday

Time Temperature Precipitation Wind Pressure Humidity
00:00 +7°C° 0 mm 2 mps 755 mmHg 89%
01:00 +7°C° 0 mm 1 mps 755 mmHg 90%
02:00 +6°C° 0 mm 2 mps 755 mmHg 91%
03:00 +6°C° 0 mm 2 mps 755 mmHg 91%
04:00 +5°C° 0 mm 2 mps 755 mmHg 92%
05:00 +7°C° 0 mm 3 mps 755 mmHg 87%
06:00 +9°C° 0 mm 3 mps 755 mmHg 82%
07:00 +11°C° 0 mm 3 mps 755 mmHg 77%
08:00 +12°C° 0 mm 4 mps 755 mmHg 72%
09:00 +14°C° 0 mm 4 mps 754 mmHg 67%
10:00 +15°C° 0 mm 5 mps 754 mmHg 62%
11:00 +15°C° 0.1 mm 5 mps 754 mmHg 60%
12:00 +16°C° 0.1 mm 6 mps 753 mmHg 58%
13:00 +16°C° 0.1 mm 6 mps 753 mmHg 57%
14:00 +17°C° 0 mm 6 mps 752 mmHg 58%
15:00 +17°C° 0 mm 5 mps 752 mmHg 59%
16:00 +17°C° 0 mm 5 mps 752 mmHg 60%
17:00 +16°C° 0 mm 5 mps 751 mmHg 64%
18:00 +15°C° 0 mm 4 mps 750 mmHg 69%
19:00 +13°C° 0 mm 4 mps 750 mmHg 73%
20:00 +13°C° 0 mm 5 mps 749 mmHg 70%
21:00 +13°C° 0 mm 6 mps 749 mmHg 67%
22:00 +14°C° 0 mm 6 mps 749 mmHg 64%
23:00 +13°C° 0 mm 5 mps 748 mmHg 67%

22 May, Saturday

Time Temperature Precipitation Wind Pressure Humidity
00:00 +13°C° 0 mm 5 mps 748 mmHg 70%
01:00 +12°C° 0 mm 4 mps 748 mmHg 73%
02:00 +12°C° 0 mm 4 mps 747 mmHg 74%
03:00 +12°C° 0 mm 4 mps 747 mmHg 75%
04:00 +11°C° 0 mm 4 mps 746 mmHg 76%
05:00 +12°C° 0 mm 4 mps 746 mmHg 76%
06:00 +12°C° 0 mm 5 mps 747 mmHg 76%
07:00 +13°C° 0 mm 5 mps 747 mmHg 76%
08:00 +14°C° 0 mm 5 mps 747 mmHg 73%
09:00 +15°C° 0 mm 5 mps 746 mmHg 70%
10:00 +16°C° 0 mm 5 mps 746 mmHg 67%
11:00 +17°C° 0 mm 5 mps 746 mmHg 68%
12:00 +17°C° 0 mm 5 mps 746 mmHg 68%
13:00 +17°C° 0 mm 5 mps 746 mmHg 68%
14:00 +16°C° 0.4 mm 5 mps 746 mmHg 75%
15:00 +14°C° 0.4 mm 5 mps 746 mmHg 82%
16:00 +13°C° 0.4 mm 5 mps 746 mmHg 89%
17:00 +13°C° 0.1 mm 4 mps 746 mmHg 90%
18:00 +12°C° 0.1 mm 4 mps 746 mmHg 90%
19:00 +12°C° 0.1 mm 3 mps 746 mmHg 91%
20:00 +11°C° 0 mm 4 mps 746 mmHg 91%
21:00 +11°C° 0 mm 4 mps 747 mmHg 90%
22:00 +10°C° 0 mm 4 mps 747 mmHg 89%
23:00 +10°C° 0 mm 4 mps 747 mmHg 89%

23 May, Sunday

Time Temperature Precipitation Wind Pressure Humidity
00:00 +8°C° 0 mm 4 mps 747 mmHg 89%
01:00 +8°C° 0 mm 5 mps 747 mmHg 89%
02:00 +7°C° 0 mm 5 mps 748 mmHg 90%
03:00 +7°C° 0 mm 5 mps 748 mmHg 91%
04:00 +6°C° 0 mm 5 mps 748 mmHg 92%
05:00 +8°C° 0 mm 5 mps 748 mmHg 88%
06:00 +9°C° 0 mm 5 mps 749 mmHg 85%
07:00 +10°C° 0 mm 5 mps 749 mmHg 81%
08:00 +11°C° 0.1 mm 6 mps 749 mmHg 76%
09:00 +13°C° 0.1 mm 6 mps 749 mmHg 71%
10:00 +14°C° 0.1 mm 6 mps 750 mmHg 65%
11:00 +14°C° 0.2 mm 6 mps 750 mmHg 61%
12:00 +15°C° 0.2 mm 7 mps 750 mmHg 56%
13:00 +16°C° 0.2 mm 7 mps 750 mmHg 51%
14:00 +16°C° 0 mm 7 mps 750 mmHg 53%
15:00 +15°C° 0 mm 6 mps 750 mmHg 54%
16:00 +15°C° 0 mm 6 mps 750 mmHg 56%
17:00 +14°C° 0 mm 5 mps 751 mmHg 62%
18:00 +12°C° 0 mm 4 mps 751 mmHg 67%
19:00 +11°C° 0 mm 3 mps 751 mmHg 73%
20:00 +10°C° 0 mm 3 mps 752 mmHg 76%
21:00 +9°C° 0 mm 3 mps 752 mmHg 79%
22:00 +8°C° 0 mm 3 mps 753 mmHg 83%
23:00 +8°C° 0 mm 3 mps 753 mmHg 82%
Show more

We Need Your Consent

Meteoprog and our Service Providers may store and access personal data such as cookies, device identifiers or other similar technologies on your device and process such data to personalise content and ads, as well as provide social media features and to analyse the traffic.

  • Store and/or access information on your device

    Cookies, device identifiers or other information can be stored or accessed on your device for the purposes indicated above.

  • Personalised ads and content, ad and content measurement, audience insights, and products development

    Ads and content can be personalised based on a profile. More data can be added to better personalise ads and content. Ad and content performance can be measured. Insights about the audience who saw the ads and content can be derived. Such data can be used to develop or improve user’s experience, systems and software.

By clicking ‘I Agree’ you will allow the use of indicated cookies, device identifiers, web beacons or other similar technologies. Your settings can be changed in the browser on your device.

For certain purposes, legitimate interests may be relied on, rather than consent. You can read more about this in our Privacy and Cookie Policy.